When you browse on this site, cookies collect data to enhance your experience and personalize the content and advertising you see.
Visit our Privacy Policy to learn more. By continuing to use the site, you agree to this use of cookies and data.
  • In Hungary
  • List of Countries
  • For 7 days
  • Water Temperature
  • Satellite Maps
  • Weather Map
  • News
  • Weather Widgets
  • user-avatar
    Login

    Hourly Weather Cerveteri

    Today, 22 January, Tuesday

    Time Temperature Precipitation Wind Pressure Humidity
    00:00 +6°C° 0.5 mm 5 mps 749 mmHg 84%
    01:00 +6°C° 0.5 mm 5 mps 749 mmHg 83%
    02:00 +6°C° 3.1 mm 5 mps 749 mmHg 86%
    03:00 +6°C° 3.1 mm 5 mps 748 mmHg 88%
    04:00 +4°C° 3.1 mm 6 mps 748 mmHg 91%
    05:00 +4°C° 1.3 mm 6 mps 748 mmHg 90%
    06:00 +4°C° 1.3 mm 6 mps 747 mmHg 88%
    07:00 +4°C° 1.3 mm 6 mps 747 mmHg 87%
    08:00 +5°C° 1.2 mm 5 mps 747 mmHg 87%
    09:00 +5°C° 1.2 mm 4 mps 747 mmHg 87%
    10:00 +5°C° 1.2 mm 3 mps 747 mmHg 87%
    11:00 +5°C° 1.2 mm 3 mps 747 mmHg 88%
    12:00 +5°C° 1.2 mm 4 mps 747 mmHg 89%
    13:00 +5°C° 1.2 mm 4 mps 747 mmHg 89%
    14:00 +5°C° 0.5 mm 4 mps 746 mmHg 88%
    15:00 +5°C° 0.5 mm 4 mps 746 mmHg 87%
    16:00 +4°C° 0.5 mm 4 mps 746 mmHg 86%
    17:00 +4°C° 0.2 mm 4 mps 746 mmHg 86%
    18:00 +4°C° 0.2 mm 3 mps 746 mmHg 86%
    19:00 +4°C° 0.2 mm 3 mps 746 mmHg 86%
    20:00 +4°C° 0.3 mm 3 mps 746 mmHg 86%
    21:00 +5°C° 0.3 mm 2 mps 746 mmHg 86%
    22:00 +5°C° 0.3 mm 2 mps 746 mmHg 85%
    23:00 +5°C° 0.2 mm 2 mps 746 mmHg 85%

    Tomorrow, 23 January, Wednesday

    Time Temperature Precipitation Wind Pressure Humidity
    00:00 +6°C° 0.2 mm 1 mps 746 mmHg 85%
    01:00 +6°C° 0.2 mm 1 mps 746 mmHg 85%
    02:00 +5°C° 0 mm 1 mps 745 mmHg 86%
    03:00 +4°C° 0 mm 2 mps 745 mmHg 86%
    04:00 +3°C° 0 mm 3 mps 745 mmHg 87%
    05:00 +3°C° 0 mm 3 mps 744 mmHg 86%
    06:00 +3°C° 0 mm 3 mps 744 mmHg 86%
    07:00 +2°C° 0 mm 3 mps 744 mmHg 85%
    08:00 +3°C° 0 mm 4 mps 744 mmHg 83%
    09:00 +5°C° 0 mm 4 mps 744 mmHg 80%
    10:00 +6°C° 0 mm 4 mps 744 mmHg 78%
    11:00 +6°C° 0.7 mm 5 mps 743 mmHg 78%
    12:00 +7°C° 0.7 mm 5 mps 742 mmHg 79%
    13:00 +7°C° 0.7 mm 5 mps 741 mmHg 79%
    14:00 +7°C° 1.2 mm 6 mps 741 mmHg 79%
    15:00 +7°C° 1.2 mm 6 mps 741 mmHg 79%
    16:00 +6°C° 1.2 mm 7 mps 740 mmHg 78%
    17:00 +5°C° 1 mm 6 mps 740 mmHg 79%
    18:00 +6°C° 1 mm 5 mps 740 mmHg 80%
    19:00 +6°C° 1 mm 4 mps 740 mmHg 81%
    20:00 +5°C° 0.3 mm 4 mps 740 mmHg 81%
    21:00 +5°C° 0.3 mm 4 mps 740 mmHg 81%
    22:00 +3°C° 0.3 mm 5 mps 740 mmHg 81%
    23:00 +3°C° 0 mm 5 mps 739 mmHg 79%

    Day after tomorrow, 24 January, Thursday

    Time Temperature Precipitation Wind Pressure Humidity
    00:00 +2°C° 0 mm 5 mps 739 mmHg 78%
    01:00 +2°C° 0 mm 5 mps 739 mmHg 76%
    02:00 +2°C° 0 mm 5 mps 738 mmHg 76%
    03:00 +2°C° 0 mm 5 mps 738 mmHg 76%
    04:00 +2°C° 0 mm 5 mps 738 mmHg 75%
    05:00 +2°C° 0 mm 5 mps 738 mmHg 75%
    06:00 +2°C° 0 mm 6 mps 738 mmHg 75%
    07:00 +3°C° 0 mm 6 mps 738 mmHg 75%
    08:00 +4°C° 0 mm 6 mps 738 mmHg 74%
    09:00 +4°C° 0 mm 6 mps 739 mmHg 72%
    10:00 +5°C° 0 mm 6 mps 739 mmHg 71%
    11:00 +8°C° 0 mm 5 mps 740 mmHg 67%
    12:00 +9°C° 0 mm 5 mps 740 mmHg 63%
    13:00 +12°C° 0 mm 5 mps 741 mmHg 59%
    14:00 +10°C° 0 mm 5 mps 741 mmHg 61%
    15:00 +10°C° 0 mm 6 mps 742 mmHg 63%
    16:00 +9°C° 0 mm 6 mps 742 mmHg 64%
    17:00 +8°C° 0 mm 7 mps 743 mmHg 67%
    18:00 +6°C° 0 mm 7 mps 743 mmHg 69%
    19:00 +5°C° 0 mm 8 mps 744 mmHg 71%
    20:00 +5°C° 0 mm 8 mps 745 mmHg 72%
    21:00 +4°C° 0 mm 8 mps 745 mmHg 72%
    22:00 +2°C° 0 mm 8 mps 746 mmHg 73%
    23:00 +2°C° 0 mm 9 mps 746 mmHg 73%

    25 January, Friday

    Time Temperature Precipitation Wind Pressure Humidity
    00:00 +2°C° 0 mm 9 mps 746 mmHg 72%
    01:00 +2°C° 0 mm 10 mps 746 mmHg 72%
    02:00 +2°C° 0 mm 10 mps 746 mmHg 71%
    03:00 +2°C° 0 mm 10 mps 746 mmHg 71%
    04:00 +2°C° 0 mm 10 mps 746 mmHg 71%
    05:00 +2°C° 0 mm 10 mps 746 mmHg 70%
    06:00 +2°C° 0 mm 10 mps 747 mmHg 70%
    07:00 +2°C° 0 mm 10 mps 747 mmHg 69%
    08:00 +2°C° 0 mm 10 mps 747 mmHg 67%
    09:00 +3°C° 0 mm 10 mps 748 mmHg 64%
    10:00 +5°C° 0 mm 9 mps 748 mmHg 62%
    11:00 +6°C° 0 mm 9 mps 748 mmHg 59%
    12:00 +7°C° 0 mm 8 mps 749 mmHg 56%
    13:00 +9°C° 0 mm 8 mps 749 mmHg 54%
    14:00 +7°C° 0 mm 8 mps 749 mmHg 55%
    15:00 +7°C° 0 mm 8 mps 749 mmHg 55%
    16:00 +6°C° 0 mm 8 mps 749 mmHg 56%
    17:00 +5°C° 0 mm 8 mps 750 mmHg 57%
    18:00 +4°C° 0 mm 8 mps 750 mmHg 58%
    19:00 +2°C° 0 mm 9 mps 750 mmHg 59%
    20:00 +2°C° 0 mm 9 mps 751 mmHg 58%
    21:00 +2°C° 0 mm 9 mps 751 mmHg 58%
    22:00 +1°C° 0 mm 10 mps 752 mmHg 57%
    23:00 +1°C° 0 mm 9 mps 752 mmHg 58%

    26 January, Saturday

    Time Temperature Precipitation Wind Pressure Humidity
    00:00 +1°C° 0 mm 9 mps 752 mmHg 60%
    01:00 0°C° 0 mm 9 mps 753 mmHg 61%
    02:00 0°C° 0 mm 8 mps 753 mmHg 62%
    03:00 0°C° 0 mm 8 mps 753 mmHg 63%
    04:00 0°C° 0 mm 8 mps 753 mmHg 64%
    05:00 -1°C° 0 mm 8 mps 753 mmHg 63%
    06:00 -1°C° 0 mm 8 mps 753 mmHg 62%
    07:00 -1°C° 0 mm 8 mps 753 mmHg 61%
    08:00 0°C° 0 mm 8 mps 754 mmHg 58%
    09:00 +1°C° 0 mm 8 mps 754 mmHg 54%
    10:00 +2°C° 0 mm 8 mps 754 mmHg 51%
    11:00 +5°C° 0 mm 7 mps 754 mmHg 48%
    12:00 +7°C° 0 mm 6 mps 754 mmHg 45%
    13:00 +8°C° 0 mm 5 mps 753 mmHg 41%
    14:00 +8°C° 0 mm 5 mps 753 mmHg 44%
    15:00 +8°C° 0 mm 4 mps 753 mmHg 46%
    16:00 +9°C° 0 mm 3 mps 753 mmHg 49%
    17:00 +8°C° 0 mm 3 mps 753 mmHg 55%
    18:00 +5°C° 0 mm 3 mps 753 mmHg 60%
    19:00 +4°C° 0 mm 3 mps 753 mmHg 66%
    20:00 +4°C° 0 mm 2 mps 753 mmHg 67%
    21:00 +4°C° 0 mm 2 mps 753 mmHg 68%
    22:00 +4°C° 0 mm 1 mps 753 mmHg 69%
    23:00 +3°C° 0 mm 2 mps 752 mmHg 68%

    27 January, Sunday

    Time Temperature Precipitation Wind Pressure Humidity
    00:00 +3°C° 0 mm 2 mps 752 mmHg 67%
    01:00 +3°C° 0 mm 2 mps 752 mmHg 66%
    02:00 +2°C° 0 mm 3 mps 751 mmHg 63%
    03:00 +3°C° 0 mm 4 mps 750 mmHg 61%
    04:00 +3°C° 0 mm 4 mps 750 mmHg 59%
    05:00 +4°C° 0.1 mm 4 mps 749 mmHg 62%
    06:00 +5°C° 0.1 mm 4 mps 749 mmHg 65%
    07:00 +6°C° 0.1 mm 4 mps 749 mmHg 68%
    08:00 +7°C° 0.1 mm 4 mps 749 mmHg 71%
    09:00 +8°C° 0.1 mm 4 mps 749 mmHg 74%
    10:00 +8°C° 0.1 mm 4 mps 748 mmHg 77%
    11:00 +9°C° 0.3 mm 5 mps 748 mmHg 76%
    12:00 +10°C° 0.3 mm 5 mps 747 mmHg 75%
    13:00 +11°C° 0.3 mm 6 mps 747 mmHg 73%
    14:00 +11°C° 0.7 mm 6 mps 746 mmHg 75%
    15:00 +10°C° 0.7 mm 7 mps 746 mmHg 77%
    16:00 +10°C° 0.7 mm 7 mps 745 mmHg 78%
    17:00 +9°C° 0.1 mm 7 mps 745 mmHg 78%
    18:00 +8°C° 0.1 mm 7 mps 746 mmHg 77%
    19:00 +7°C° 0.1 mm 6 mps 746 mmHg 77%
    20:00 +7°C° 0 mm 6 mps 746 mmHg 76%
    21:00 +7°C° 0 mm 6 mps 746 mmHg 76%
    22:00 +7°C° 0 mm 5 mps 746 mmHg 75%
    23:00 +7°C° 0 mm 5 mps 745 mmHg 76%
    Show more